K6OUA-11 Weather Reports


Display with metric or nautical units.
time (UTC)temp
F
wind
direction
speed
MPH
gust
MPH
rain 1hr
in
rain 24hr
in
rain mn
in
humidity
%
barometer
mb
20170722005748 85 263 4.0 9.0 0.00 0.00 0.00 47 1006.4
20170722005448 85 258 5.0 5.0 0.00 0.00 0.00 47 1006.4
20170722005146 85 265 2.0 7.0 0.00 0.00 0.00 47 1006.4
20170722004844 85 232 2.0 6.0 0.00 0.00 0.00 46 1006.5
20170722004543 85 254 3.0 6.0 0.00 0.00 0.00 47 1006.5
20170722004244 85 236 2.0 7.0 0.00 0.00 0.00 46 1006.6
20170722003940 85 252 4.0 7.0 0.00 0.00 0.00 46 1006.5
20170722003641 86 263 7.0 7.0 0.00 0.00 0.00 46 1006.6
20170722003338 86 247 4.0 7.0 0.00 0.00 0.00 46 1006.6
20170722002737 86 252 4.0 5.0 0.00 0.00 0.00 46 1006.7
20170722002435 86 245 3.0 7.0 0.00 0.00 0.00 46 1006.6
20170722002135 86 263 7.0 7.0 0.00 0.00 0.00 46 1006.5
20170722001834 86 240 3.0 8.0 0.00 0.00 0.00 45 1006.7
20170722001532 86 249 3.0 7.0 0.00 0.00 0.00 46 1006.7
20170722001231 86 256 4.0 9.0 0.00 0.00 0.00 46 1006.7
20170722000931 86 254 4.0 7.0 0.00 0.00 0.00 46 1006.7
20170722000630 86 240 4.0 5.0 0.00 0.00 0.00 46 1006.8
20170722000327 86 249 2.0 3.0 0.00 0.00 0.00 47 1006.8
20170722000026 86 249 3.0 8.0 0.00 0.00 0.00 47 1006.7
20170721235727 86 243 3.0 3.0 0.00 0.00 0.00 47 1006.7
20170721234824 86 267 10.0 12.0 0.00 0.00 0.00 47 1006.8
20170721234522 86 265 11.0 11.0 0.00 0.00 0.00 47 1006.9
20170721234220 86 258 6.0 9.0 0.00 0.00 0.00 47 1006.9
20170721233919 86 261 5.0 14.0 0.00 0.00 0.00 46 1006.9
20170721233618 86 261 7.0 10.0 0.00 0.00 0.00 47 1007.0
20170721233318 86 256 5.0 10.0 0.00 0.00 0.00 46 1006.8
20170721233015 86 256 4.0 12.0 0.00 0.00 0.00 46 1007.0
20170721232714 87 272 10.0 11.0 0.00 0.00 0.00 46 1006.9
20170721232414 87 243 5.0 9.0 0.00 0.00 0.00 45 1006.9
20170721232113 87 261 2.0 10.0 0.00 0.00 0.00 45 1007.0
20170721231812 87 270 8.0 10.0 0.00 0.00 0.00 44 1006.9
20170721231511 87 247 6.0 11.0 0.00 0.00 0.00 45 1006.9
20170721231209 88 256 6.0 12.0 0.00 0.00 0.00 44 1006.9
20170721230907 88 249 6.0 10.0 0.00 0.00 0.00 44 1006.8
20170721230606 89 285 14.0 15.0 0.00 0.00 0.00 44 1006.8
20170721230306 89 256 5.0 11.0 0.00 0.00 0.00 44 1007.1
20170721230004 89 245 3.0 6.0 0.00 0.00 0.00 44 1007.3
20170721225703 89 258 5.0 10.0 0.00 0.00 0.00 44 1007.1
20170721225402 89 267 8.0 8.0 0.00 0.00 0.00 44 1007.0
20170721225101 88 249 5.0 10.0 0.00 0.00 0.00 44 1007.1
20170721224801 88 283 9.0 9.0 0.00 0.00 0.00 44 1007.0
20170721224500 88 249 6.0 10.0 0.00 0.00 0.00 44 1007.3
20170721223857 89 245 5.0 11.0 0.00 0.00 0.00 44 1007.4
20170721222953 89 247 7.0 10.0 0.00 0.00 0.00 44 1007.4
20170721222652 90 270 7.0 10.0 0.00 0.00 0.00 44 1007.4
20170721222351 90 249 4.0 10.0 0.00 0.00 0.00 44 1007.6
20170721222050 89 261 6.0 10.0 0.00 0.00 0.00 45 1007.7
20170721221749 89 230 2.0 5.0 0.00 0.00 0.00 44 1007.7
20170721221448 89 252 5.0 7.0 0.00 0.00 0.00 45 1007.5
20170721221147 89 252 3.0 7.0 0.00 0.00 0.00 45 1007.7
20170721220845 89 263 5.0 10.0 0.00 0.00 0.00 45 1007.7
20170721220545 88 254 4.0 9.0 0.00 0.00 0.00 45 1007.7
20170721220243 88 263 7.0 7.0 0.00 0.00 0.00 45 1007.7
20170721215942 88 243 4.0 11.0 0.00 0.00 0.00 46 1007.8
20170721215644 88 281 7.0 11.0 0.00 0.00 0.00 46 1007.7
20170721214734 88 249 6.0 9.0 0.00 0.00 0.00 46 1007.8
20170721214432 88 252 7.0 9.0 0.00 0.00 0.00 46 1008.0
20170721214132 88 261 4.0 12.0 0.00 0.00 0.00 46 1007.9
20170721213829 88 243 7.0 9.0 0.00 0.00 0.00 47 1008.0
20170721213528 88 258 5.0 11.0 0.00 0.00 0.00 47 1008.1
20170721213227 88 238 2.0 8.0 0.00 0.00 0.00 47 1008.0
20170721212928 87 245 5.0 10.0 0.00 0.00 0.00 47 1008.0
20170721212625 87 229 1.0 9.0 0.00 0.00 0.00 47 1008.1
20170721212325 87 265 6.0 13.0 0.00 0.00 0.00 47 1008.1
20170721212023 87 265 6.0 13.0 0.00 0.00 0.00 47 1008.3
20170721211722 87 233 4.0 12.0 0.00 0.00 0.00 47 1008.3
20170721211422 87 267 8.0 9.0 0.00 0.00 0.00 47 1008.3
20170721211119 87 285 8.0 9.0 0.00 0.00 0.00 47 1008.4
20170721210859 86 254 4.0 8.0 0.00 0.00 0.00 48 1008.5
20170721210517 87 258 5.0 12.0 0.00 0.00 0.00 47 1008.5
20170721210216 86 265 10.0 16.0 0.00 0.00 0.00 48 1008.4
20170721205915 86 254 4.0 8.0 0.00 0.00 0.00 48 1008.5
20170721205751 86 252 10.0 10.0 0.00 0.00 0.00 49 1008.6
20170721205614 86 242 3.0 10.0 0.00 0.00 0.00 49 1008.6
20170721205314 86 252 10.0 10.0 0.00 0.00 0.00 49 1008.6
20170721205012 86 243 4.0 10.0 0.00 0.00 0.00 49 1008.7
20170721204927 86 256 5.0 13.0 0.00 0.00 0.00 48 1008.6
20170721204712 86 267 7.0 10.0 0.00 0.00 0.00 48 1008.6
20170721204445 86 263 7.0 15.0 0.00 0.00 0.00 49 1008.6
20170721204410 86 254 6.0 13.0 0.00 0.00 0.00 49 1008.6
20170721204108 86 256 5.0 13.0 0.00 0.00 0.00 48 1008.6
20170721203807 86 263 7.0 15.0 0.00 0.00 0.00 49 1008.6
20170721203507 86 252 6.0 15.0 0.00 0.00 0.00 48 1008.7
20170721202906 86 256 6.0 9.0 0.00 0.00 0.00 48 1008.8
20170721202603 86 265 10.0 12.0 0.00 0.00 0.00 48 1008.6
20170721202303 86 261 11.0 14.0 0.00 0.00 0.00 48 1008.6
20170721202001 86 267 6.0 10.0 0.00 0.00 0.00 47 1008.8
20170721201701 86 252 5.0 9.0 0.00 0.00 0.00 47 1008.8
20170721201057 87 252 7.0 10.0 0.00 0.00 0.00 47 1008.8
20170721200758 87 263 8.0 12.0 0.00 0.00 0.00 47 1008.8
20170721200455 87 281 12.0 12.0 0.00 0.00 0.00 47 1008.7
20170721195552 88 249 4.0 13.0 0.00 0.00 0.00 46 1008.9
20170721195251 88 265 9.0 13.0 0.00 0.00 0.00 46 1008.9
20170721194952 88 299 10.0 10.0 0.00 0.00 0.00 46 1008.9
20170721194649 89 235 4.0 9.0 0.00 0.00 0.00 45 1009.0
20170721194347 89 265 7.0 8.0 0.00 0.00 0.00 46 1008.9
20170721194046 89 265 4.0 8.0 0.00 0.00 0.00 45 1009.0
20170721193747 88 261 3.0 6.0 0.00 0.00 0.00 46 1008.9
20170721193143 88 263 3.0 7.0 0.00 0.00 0.00 47 1008.9
20170721192845 88 247 5.0 9.0 0.00 0.00 0.00 46 1009.0
20170721192541 88 256 4.0 11.0 0.00 0.00 0.00 47 1009.1
20170721191940 88 263 5.0 9.0 0.00 0.00 0.00 47 1009.1
20170721191035 87 261 6.0 11.0 0.00 0.00 0.00 47 1009.1
20170721190734 87 263 8.0 9.0 0.00 0.00 0.00 48 1009.0
20170721190433 87 263 6.0 6.0 0.00 0.00 0.00 47 1009.0
20170721190134 87 261 3.0 8.0 0.00 0.00 0.00 47 1009.0
20170721185530 86 267 7.0 7.0 0.00 0.00 0.00 48 1009.2
20170721185426 86 225 0.0 8.0 0.00 0.00 0.00 47 1009.3
20170721185229 86 249 5.0 8.0 0.00 0.00 0.00 48 1009.2
20170721184928 86 225 1.0 6.0 0.00 0.00 0.00 48 1009.3
20170721184627 86 240 1.0 5.0 0.00 0.00 0.00 48 1009.4
20170721184325 85 247 2.0 6.0 0.00 0.00 0.00 49 1009.4
20170721184024 85 263 4.0 8.0 0.00 0.00 0.00 48 1009.3
20170721183723 85 232 1.0 7.0 0.00 0.00 0.00 48 1009.2
20170721183122 85 265 5.0 6.0 0.00 0.00 0.00 48 1009.4
20170721182824 86 225 0.0 8.0 0.00 0.00 0.00 47 1009.3
20170721182822 86 225 0.0 8.0 0.00 0.00 0.00 47 1009.3
20170721182519 86 272 7.0 8.0 0.00 0.00 0.00 47 1009.3
20170721182218 86 292 1.0 6.0 0.00 0.00 0.00 47 1009.4
20170721181917 86 267 4.0 4.0 0.00 0.00 0.00 48 1009.5
20170721181616 86 234 3.0 5.0 0.00 0.00 0.00 48 1009.4
20170721181540 86 261 4.0 5.0 0.00 0.00 0.00 48 1009.4
20170721181317 86 261 4.0 5.0 0.00 0.00 0.00 48 1009.4
20170721181015 86 231 1.0 5.0 0.00 0.00 0.00 49 1009.4
20170721180714 86 270 4.0 4.0 0.00 0.00 0.00 49 1009.3
20170721180412 86 261 3.0 7.0 0.00 0.00 0.00 48 1009.3
20170721180112 86 267 5.0 9.0 0.00 0.00 0.00 49 1009.5
20170721175508 86 240 2.0 4.0 0.00 0.00 0.00 50 1009.5
20170721175208 86 254 2.0 6.0 0.00 0.00 0.00 51 1009.5
20170721174606 85 247 4.0 6.0 0.00 0.00 0.00 52 1009.5
20170721174304 85 258 2.0 5.0 0.00 0.00 0.00 52 1009.4
20170721174004 85 247 3.0 3.0 0.00 0.00 0.00 53 1009.3
20170721173702 84 238 0.0 4.0 0.00 0.00 0.00 54 1009.4
20170721173059 83 238 0.0 3.0 0.00 0.00 0.00 54 1009.4
20170721172801 82 225 1.0 5.0 0.00 0.00 0.00 55 1009.5
20170721172458 82 243 2.0 6.0 0.00 0.00 0.00 55 1009.4
20170721172158 81 258 5.0 6.0 0.00 0.00 0.00 56 1009.4
20170721171856 81 281 3.0 8.0 0.00 0.00 0.00 56 1009.4
20170721171555 81 254 3.0 5.0 0.00 0.00 0.00 57 1009.5
20170721171254 80 254 2.0 5.0 0.00 0.00 0.00 57 1009.2
20170721170651 79 276 6.0 6.0 0.00 0.00 0.00 58 1009.3
20170721170430 79 254 4.0 6.0 0.00 0.00 0.00 59 1009.2
20170721170349 79 254 4.0 6.0 0.00 0.00 0.00 59 1009.2
20170721170049 79 238 4.0 8.0 0.00 0.00 0.00 59 1009.0
20170721164845 78 270 5.0 9.0 0.00 0.00 0.00 59 1009.3
20170721164544 78 270 8.0 9.0 0.00 0.00 0.00 60 1009.4
20170721164242 78 283 8.0 9.0 0.00 0.00 0.00 60 1009.3
20170721163941 78 265 6.0 7.0 0.00 0.00 0.00 61 1009.4
20170721163640 78 238 3.0 7.0 0.00 0.00 0.00 61 1009.3
20170721163339 77 267 3.0 5.0 0.00 0.00 0.00 61 1009.5
20170721163038 77 261 6.0 7.0 0.00 0.00 0.00 62 1009.4
20170721162433 76 252 3.0 6.0 0.00 0.00 0.00 62 1009.3
20170721162129 76 243 3.0 7.0 0.00 0.00 0.00 62 1009.4
20170721161829 76 249 3.0 7.0 0.00 0.00 0.00 63 1009.4
20170721161527 76 267 3.0 7.0 0.00 0.00 0.00 63 1009.4
20170721161227 76 270 4.0 8.0 0.00 0.00 0.00 62 1009.3
20170721160323 77 261 4.0 6.0 0.00 0.00 0.00 63 1009.2
20170721160021 77 249 3.0 6.0 0.00 0.00 0.00 64 1009.2
20170721155315 76 270 2.0 4.0 0.00 0.00 0.00 65 1009.3
20170721155118 76 270 2.0 4.0 0.00 0.00 0.00 65 1009.3
20170721154517 76 240 1.0 4.0 0.00 0.00 0.00 67 1009.3
20170721153915 75 225 1.0 5.0 0.00 0.00 0.00 68 1009.2
20170721153614 74 263 2.0 4.0 0.00 0.00 0.00 68 1009.2
20170721153312 74 265 4.0 4.0 0.00 0.00 0.00 68 1009.1
20170721153011 74 279 3.0 4.0 0.00 0.00 0.00 68 1009.3
20170721152710 74 270 2.0 5.0 0.00 0.00 0.00 69 1009.1
20170721152408 74 254 1.0 2.0 0.00 0.00 0.00 70 1009.2
20170721152107 73 225 1.0 3.0 0.00 0.00 0.00 71 1009.2
20170721151807 73 234 1.0 2.0 0.00 0.00 0.00 71 1009.1
20170721151505 72 225 0.0 3.0 0.00 0.00 0.00 72 1009.2
20170721151205 72 245 1.0 2.0 0.00 0.00 0.00 72 1009.3
20170721150902 71 202 0.0 4.0 0.00 0.00 0.00 73 1009.2
20170721150602 71 258 2.0 4.0 0.00 0.00 0.00 73 1009.3
20170721150001 70 270 1.0 3.0 0.00 0.00 0.00 74 1009.3
20170721145959 70 270 1.0 3.0 0.00 0.00 0.00 74 1009.3
20170721145659 70 254 1.0 3.0 0.00 0.00 0.00 74 1009.0
20170721145358 70 249 2.0 2.0 0.00 0.00 0.00 74 1009.0
20170721145059 70 254 3.0 4.0 0.00 0.00 0.00 75 1009.0
20170721145056 70 254 3.0 4.0 0.00 0.00 0.00 75 1009.0
20170721144756 70 258 1.0 3.0 0.00 0.00 0.00 75 1009.2
20170721144454 69 225 0.0 2.0 0.00 0.00 0.00 76 1009.1
20170721144154 69 247 1.0 3.0 0.00 0.00 0.00 76 1009.0
20170721143944 69 247 2.0 4.0 0.00 0.00 0.00 75 1009.0
20170721143852 69 247 2.0 4.0 0.00 0.00 0.00 75 1009.0
20170721143551 69 270 2.0 4.0 0.00 0.00 0.00 75 1008.9
20170721143251 68 270 1.0 3.0 0.00 0.00 0.00 75 1009.0
20170721142949 68 270 2.0 2.0 0.00 0.00 0.00 76 1008.9
20170721142647 67 270 1.0 1.0 0.00 0.00 0.00 76 1009.0
20170721142346 67 240 0.0 0.0 0.00 0.00 0.00 78 1008.9
20170721142045 66 225 0.0 0.0 0.00 0.00 0.00 78 1009.0
20170721141744 65 225 0.0 0.0 0.00 0.00 0.00 79 1009.2
20170721141442 65 225 0.0 0.0 0.00 0.00 0.00 79 1008.9
20170721141141 64 225 0.0 0.0 0.00 0.00 0.00 79 1008.7
20170721140841 64 270 0.0 1.0 0.00 0.00 0.00 80 1008.9
20170721140540 63 180 0.0 0.0 0.00 0.00 0.00 81 1008.8
20170721140241 62 180 0.0 0.0 0.00 0.00 0.00 82 1008.6
20170721135938 62 180 0.0 0.0 0.00 0.00 0.00 82 1008.7
20170721135636 62 225 0.0 0.0 0.00 0.00 0.00 82 1008.6
20170721135336 61 202 0.0 0.0 0.00 0.00 0.00 83 1008.6
20170721135035 60 225 0.0 0.0 0.00 0.00 0.00 83 1008.8
20170721134733 60 225 0.0 0.0 0.00 0.00 0.00 84 1008.4
20170721134131 59 225 0.0 0.0 0.00 0.00 0.00 83 1008.3
20170721133831 58 225 0.0 1.0 0.00 0.00 0.00 84 1008.4
20170721133529 58 90 1.0 1.0 0.00 0.00 0.00 84 1008.3
20170721133227 58 270 0.0 1.0 0.00 0.00 0.00 84 1008.4
20170721132926 57 225 0.0 0.0 0.00 0.00 0.00 84 1008.3
20170721132626 57 225 0.0 0.0 0.00 0.00 0.00 84 1008.3
20170721132325 57 225 0.0 0.0 0.00 0.00 0.00 83 1008.3
20170721132023 56 135 0.0 0.0 0.00 0.00 0.00 83 1008.2
20170721131725 56 135 0.0 1.0 0.00 0.00 0.00 83 1008.3
20170721131721 56 135 0.0 1.0 0.00 0.00 0.00 83 1008.3
20170721131421 56 225 0.0 1.0 0.00 0.00 0.00 83 1008.1
20170721131120 56 337 1.0 1.0 0.00 0.00 0.00 83 1008.1
20170721130819 56 112 0.0 0.0 0.00 0.00 0.00 83 1008.1
20170721130518 56 112 0.0 0.0 0.00 0.00 0.00 83 1008.2
20170721130216 56 112 0.0 0.0 0.00 0.00 0.00 83 1008.1
20170721125916 56 112 0.0 0.0 0.00 0.00 0.00 83 1008.1
20170721125614 56 112 0.0 1.0 0.00 0.00 0.00 84 1008.1
20170721125502 56 112 0.0 1.0 0.00 0.00 0.00 84 1008.0
20170721125313 56 112 0.0 0.0 0.00 0.00 0.00 84 1008.1
20170721125011 56 112 0.0 1.0 0.00 0.00 0.00 84 1008.0
20170721124712 56 112 1.0 1.0 0.00 0.00 0.00 84 1008.0
20170721124409 56 135 0.0 1.0 0.00 0.00 0.00 84 1008.0
20170721124109 56 112 1.0 1.0 0.00 0.00 0.00 85 1008.0
20170721123808 56 180 0.0 1.0 0.00 0.00 0.00 84 1008.0
20170721123506 56 180 0.0 1.0 0.00 0.00 0.00 85 1008.0
20170721123433 56 267 0.0 1.0 0.00 0.00 0.00 85 1007.9
20170721123206 56 157 0.0 1.0 0.00 0.00 0.00 84 1008.0
20170721123153 56 180 0.0 1.0 0.00 0.00 0.00 85 1007.9
20170721122905 56 45 1.0 1.0 0.00 0.00 0.00 84 1007.9
20170721122603 56 267 0.0 1.0 0.00 0.00 0.00 85 1007.9
20170721122302 56 180 0.0 1.0 0.00 0.00 0.00 85 1007.9
20170721122001 56 180 0.0 1.0 0.00 0.00 0.00 85 1007.8
20170721121930 56 180 0.0 1.0 0.00 0.00 0.00 85 1007.8
20170721121700 56 180 0.0 1.0 0.00 0.00 0.00 85 1007.8
20170721121359 56 180 0.0 1.0 0.00 0.00 0.00 85 1007.8
20170721121057 56 180 0.0 0.0 0.00 0.00 0.00 85 1007.7
20170721120756 56 180 0.0 0.0 0.00 0.00 0.00 85 1007.8
20170721120455 56 225 0.0 0.0 0.00 0.00 0.00 85 1007.8
20170721120154 56 225 0.0 0.0 0.00 0.00 0.00 85 1007.6
20170721115552 56 270 0.0 0.0 0.00 0.00 0.00 85 1007.8
20170721115058 56 225 0.0 0.0 0.00 0.00 0.00 84 1007.7
20170721114950 56 225 0.0 0.0 0.00 0.00 0.00 84 1007.7
20170721114650 56 225 0.0 0.0 0.00 0.00 0.00 84 1007.7
20170721114648 56 225 0.0 0.0 0.00 0.00 0.00 84 1007.7
20170721114349 56 225 0.0 0.0 0.00 0.00 0.00 83 1007.7
20170721113746 56 225 0.0 0.0 0.00 0.00 0.00 84 1007.6
20170721113445 56 225 0.0 0.0 0.00 0.00 0.00 84 1007.6
20170721113144 56 270 0.0 0.0 0.00 0.00 0.00 84 1007.5
20170721112843 56 180 0.0 0.0 0.00 0.00 0.00 84 1007.6
20170721112239 57 180 0.0 0.0 0.00 0.00 0.00 84 1007.7
20170721111940 57 180 0.0 0.0 0.00 0.00 0.00 83 1007.6
20170721111638 57 180 0.0 0.0 0.00 0.00 0.00 84 1007.7
20170721111336 57 180 0.0 0.0 0.00 0.00 0.00 84 1007.5
20170721111035 57 180 0.0 0.0 0.00 0.00 0.00 84 1007.5
20170721110735 57 180 0.0 0.0 0.00 0.00 0.00 84 1007.4
20170721110453 57 270 0.0 0.0 0.00 0.00 0.00 85 1007.5
20170721110132 57 270 0.0 0.0 0.00 0.00 0.00 85 1007.5
20170721105531 57 270 1.0 2.0 0.00 0.00 0.00 85 1007.6
20170721105230 57 270 2.0 2.0 0.00 0.00 0.00 85 1007.6
20170721104929 57 270 1.0 1.0 0.00 0.00 0.00 84 1007.6
20170721104626 57 279 0.0 0.0 0.00 0.00 0.00 84 1007.5
20170721104325 57 270 0.0 0.0 0.00 0.00 0.00 83 1007.6
20170721104119 57 261 1.0 1.0 0.00 0.00 0.00 83 1007.5
20170721104024 57 270 0.0 1.0 0.00 0.00 0.00 84 1007.5
20170721103723 57 261 1.0 1.0 0.00 0.00 0.00 83 1007.5
20170721103423 57 225 0.0 0.0 0.00 0.00 0.00 83 1007.5
20170721102820 57 225 0.0 0.0 0.00 0.00 0.00 83 1007.5
20170721102519 57 225 0.0 0.0 0.00 0.00 0.00 83 1007.3
20170721102219 57 180 0.0 0.0 0.00 0.00 0.00 83 1007.4
20170721101917 57 180 0.0 0.0 0.00 0.00 0.00 83 1007.5
20170721101615 57 180 0.0 1.0 0.00 0.00 0.00 84 1007.6
20170721101013 57 180 0.0 0.0 0.00 0.00 0.00 83 1007.5
20170721100713 57 180 0.0 0.0 0.00 0.00 0.00 83 1007.5
20170721100411 57 180 0.0 0.0 0.00 0.00 0.00 83 1007.5
20170721100110 57 180 0.0 0.0 0.00 0.00 0.00 83 1007.6
20170721095809 57 180 0.0 0.0 0.00 0.00 0.00 83 1007.7
20170721095508 58 270 0.0 0.0 0.00 0.00 0.00 83 1007.8
20170721094906 58 180 0.0 0.0 0.00 0.00 0.00 83 1007.8
20170721094303 58 180 0.0 0.0 0.00 0.00 0.00 83 1007.8
20170721094003 58 270 0.0 0.0 0.00 0.00 0.00 82 1007.8
20170721093400 58 270 1.0 1.0 0.00 0.00 0.00 83 1007.8
20170721093058 58 270 0.0 1.0 0.00 0.00 0.00 82 1007.9
20170721092758 58 270 0.0 1.0 0.00 0.00 0.00 82 1007.8
20170721092156 58 225 0.0 0.0 0.00 0.00 0.00 81 1007.8
20170721091856 58 225 0.0 0.0 0.00 0.00 0.00 82 1007.9
20170721091554 58 225 0.0 0.0 0.00 0.00 0.00 81 1007.8
20170721091255 58 225 0.0 0.0 0.00 0.00 0.00 81 1007.9
20170721091252 58 225 0.0 0.0 0.00 0.00 0.00 81 1007.9
20170721090650 58 225 0.0 0.0 0.00 0.00 0.00 81 1007.8
20170721090349 58 225 0.0 0.0 0.00 0.00 0.00 81 1007.8
20170721085747 59 225 0.0 0.0 0.00 0.00 0.00 80 1007.9
20170721085146 59 225 0.0 0.0 0.00 0.00 0.00 80 1008.0
20170721084844 59 225 0.0 0.0 0.00 0.00 0.00 80 1008.0
20170721084542 59 225 0.0 0.0 0.00 0.00 0.00 80 1008.0
20170721084242 59 225 0.0 0.0 0.00 0.00 0.00 80 1008.0
20170721083940 59 225 0.0 0.0 0.00 0.00 0.00 80 1008.0
20170721083639 59 225 0.0 0.0 0.00 0.00 0.00 79 1008.0
20170721083338 59 225 0.0 0.0 0.00 0.00 0.00 79 1008.0
20170721083036 59 225 0.0 0.0 0.00 0.00 0.00 80 1008.1
20170721082736 60 225 0.0 0.0 0.00 0.00 0.00 79 1008.0
20170721082435 60 225 0.0 0.0 0.00 0.00 0.00 79 1008.0
20170721082322 60 225 0.0 0.0 0.00 0.00 0.00 79 1008.0
20170721082134 60 225 0.0 0.0 0.00 0.00 0.00 79 1007.9
20170721082116 60 225 0.0 0.0 0.00 0.00 0.00 79 1008.0
20170721081833 60 225 0.0 0.0 0.00 0.00 0.00 79 1008.0
20170721081532 60 225 0.0 0.0 0.00 0.00 0.00 79 1008.0
20170721081231 60 225 0.0 0.0 0.00 0.00 0.00 79 1008.1
20170721080929 60 180 0.0 0.0 0.00 0.00 0.00 79 1008.1
20170721080904 60 180 0.0 1.0 0.00 0.00 0.00 79 1008.2
20170721080629 60 180 0.0 0.0 0.00 0.00 0.00 79 1008.1
20170721080327 60 180 0.0 1.0 0.00 0.00 0.00 79 1008.2
20170721075724 60 225 0.0 0.0 0.00 0.00 0.00 79 1008.2
20170721075617 60 225 0.0 0.0 0.00 0.00 0.00 79 1008.2
20170721075345 60 225 0.0 0.0 0.00 0.00 0.00 79 1008.2
20170721075123 60 225 0.0 0.0 0.00 0.00 0.00 79 1008.2
20170721074822 60 225 0.0 0.0 0.00 0.00 0.00 79 1008.2
20170721074728 60 225 0.0 0.0 0.00 0.00 0.00 78 1008.1
20170721074520 60 225 0.0 0.0 0.00 0.00 0.00 78 1008.2
20170721074436 61 225 0.0 0.0 0.00 0.00 0.00 78 1008.3
20170721074219 60 225 0.0 0.0 0.00 0.00 0.00 78 1008.1
20170721073918 61 225 0.0 0.0 0.00 0.00 0.00 78 1008.3
20170721073529 61 225 0.0 0.0 0.00 0.00 0.00 78 1008.2
20170721073316 61 225 0.0 0.0 0.00 0.00 0.00 78 1008.1
20170721073145 61 225 0.0 0.0 0.00 0.00 0.00 77 1008.0
20170721073015 61 225 0.0 0.0 0.00 0.00 0.00 78 1008.2
20170721072714 61 225 0.0 0.0 0.00 0.00 0.00 77 1008.0
20170721072413 61 270 0.0 0.0 0.00 0.00 0.00 78 1008.4
20170721072111 61 270 0.0 0.0 0.00 0.00 0.00 78 1008.2
20170721071509 61 270 0.0 0.0 0.00 0.00 0.00 77 1008.2
20170721071414 62 225 0.0 0.0 0.00 0.00 0.00 76 1008.3
20170721071208 62 225 0.0 0.0 0.00 0.00 0.00 76 1008.2
20170721071058 62 270 0.0 0.0 0.00 0.00 0.00 76 1008.2
20170721070907 62 225 0.0 0.0 0.00 0.00 0.00 76 1008.3
20170721070606 62 270 0.0 0.0 0.00 0.00 0.00 76 1008.2
20170721070304 62 270 0.0 0.0 0.00 0.00 0.00 76 1008.2
20170721070003 62 270 0.0 0.0 0.00 0.00 0.00 76 1008.2
20170721065702 62 270 0.0 0.0 0.00 0.00 0.00 76 1008.2
20170721065101 62 229 0.0 0.0 0.00 0.00 0.00 75 1008.3
20170721064801 62 225 0.0 0.0 0.00 0.00 0.00 75 1008.3
20170721064458 63 225 0.0 0.0 0.00 0.00 0.00 75 1008.4
20170721064157 63 225 0.0 0.0 0.00 0.00 0.00 75 1008.4
20170721063855 63 270 0.0 1.0 0.00 0.00 0.00 76 1008.3
20170721063554 62 270 1.0 2.0 0.00 0.00 0.00 76 1008.5
20170721063314 62 270 2.0 2.0 0.00 0.00 0.00 75 1008.4
20170721062833 62 270 2.0 2.0 0.00 0.00 0.00 75 1008.4
20170721062652 62 270 2.0 2.0 0.00 0.00 0.00 75 1008.4
20170721062601 62 270 0.0 0.0 0.00 0.00 0.00 73 1008.3
20170721062350 62 270 1.0 1.0 0.00 0.00 0.00 74 1008.2
20170721062050 62 270 0.0 0.0 0.00 0.00 0.00 73 1008.3
20170721061145 63 270 0.0 0.0 0.00 0.00 0.00 73 1008.4
20170721060845 63 270 0.0 0.0 0.00 0.00 0.00 73 1008.4
20170721060828 63 225 0.0 0.0 0.00 0.00 0.00 72 1008.2
20170721060738 63 225 0.0 0.0 0.00 0.00 0.00 73 1008.4
20170721060729 63 225 0.0 0.0 0.00 0.00 0.00 72 1008.2
20170721060544 63 225 0.0 0.0 0.00 0.00 0.00 73 1008.4
20170721060243 63 225 0.0 0.0 0.00 0.00 0.00 72 1008.2
20170721055942 63 225 0.0 0.0 0.00 0.00 0.00 72 1008.3
20170721055641 63 225 0.0 0.0 0.00 0.00 0.00 72 1008.4
20170721055500 63 225 0.0 0.0 0.00 0.00 0.00 72 1008.4
20170721055340 63 225 0.0 0.0 0.00 0.00 0.00 72 1008.4
20170721055038 64 225 0.0 0.0 0.00 0.00 0.00 72 1008.5
20170721054737 64 225 0.0 0.0 0.00 0.00 0.00 71 1008.3
20170721054542 64 225 0.0 0.0 0.00 0.00 0.00 72 1008.5
20170721054436 64 225 0.0 0.0 0.00 0.00 0.00 71 1008.5
20170721054135 64 225 0.0 0.0 0.00 0.00 0.00 72 1008.5
20170721053833 64 225 0.0 0.0 0.00 0.00 0.00 72 1008.5
20170721053533 64 225 0.0 1.0 0.00 0.00 0.00 72 1008.4
20170721053232 64 225 0.0 2.0 0.00 0.00 0.00 72 1008.4
20170721052754 64 270 2.0 2.0 0.00 0.00 0.00 72 1008.3
20170721052630 64 270 2.0 2.0 0.00 0.00 0.00 72 1008.3
20170721052331 64 270 1.0 1.0 0.00 0.00 0.00 72 1008.6
20170721052328 64 270 1.0 1.0 0.00 0.00 0.00 72 1008.6
20170721052028 64 270 1.0 1.0 0.00 0.00 0.00 71 1008.6
20170721051727 64 263 1.0 1.0 0.00 0.00 0.00 70 1008.5
20170721051425 64 225 0.0 0.0 0.00 0.00 0.00 70 1008.6
20170721051125 65 270 0.0 0.0 0.00 0.00 0.00 71 1008.6
20170721050824 65 270 0.0 1.0 0.00 0.00 0.00 71 1008.6
20170721050220 65 270 0.0 0.0 0.00 0.00 0.00 70 1008.5
20170721045620 65 315 0.0 1.0 0.00 0.00 0.00 71 1008.6
20170721045317 65 315 1.0 1.0 0.00 0.00 0.00 70 1008.8
20170721045016 65 270 0.0 0.0 0.00 0.00 0.00 68 1008.8
20170721045000 66 225 0.0 0.0 0.00 0.00 0.00 67 1008.8
20170721044715 66 225 0.0 0.0 0.00 0.00 0.00 68 1008.9
20170721044414 66 225 0.0 0.0 0.00 0.00 0.00 67 1008.8
20170721044112 66 225 0.0 0.0 0.00 0.00 0.00 67 1008.8
20170721043812 66 225 0.0 0.0 0.00 0.00 0.00 68 1008.8
20170721043510 66 225 0.0 0.0 0.00 0.00 0.00 68 1008.6
20170721043210 66 225 0.0 1.0 0.00 0.00 0.00 67 1008.6
20170721042908 66 270 1.0 1.0 0.00 0.00 0.00 67 1008.6
20170721042607 67 270 1.0 2.0 0.00 0.00 0.00 66 1008.6
20170721042306 67 270 2.0 3.0 0.00 0.00 0.00 66 1008.7
20170721042005 67 270 2.0 2.0 0.00 0.00 0.00 65 1008.7
20170721041705 67 225 0.0 0.0 0.00 0.00 0.00 65 1008.6
20170721041404 67 225 0.0 0.0 0.00 0.00 0.00 64 1008.6
20170721041109 67 225 0.0 0.0 0.00 0.00 0.00 64 1008.6
20170721040921 67 225 0.0 0.0 0.00 0.00 0.00 64 1008.6
20170721040630 68 225 0.0 1.0 0.00 0.00 0.00 63 1008.6
20170721035857 68 225 0.0 1.0 0.00 0.00 0.00 63 1008.7
20170721035557 68 225 0.0 2.0 0.00 0.00 0.00 63 1008.7
20170721035255 68 243 1.0 3.0 0.00 0.00 0.00 63 1008.7
20170721034955 68 267 1.0 2.0 0.00 0.00 0.00 62 1008.7
20170721034653 68 234 0.0 2.0 0.00 0.00 0.00 61 1008.5
20170721034351 69 249 1.0 2.0 0.00 0.00 0.00 61 1008.5
20170721034051 69 225 0.0 0.0 0.00 0.00 0.00 61 1008.5
20170721033750 69 225 0.0 1.0 0.00 0.00 0.00 60 1008.5
20170721033147 70 225 0.0 0.0 0.00 0.00 0.00 58 1008.6
20170721032847 70 225 0.0 0.0 0.00 0.00 0.00 58 1008.6
20170721032245 71 213 1.0 1.0 0.00 0.00 0.00 56 1008.6
20170721031943 71 213 1.0 1.0 0.00 0.00 0.00 56 1008.5
20170721031643 72 225 0.0 2.0 0.00 0.00 0.00 55 1008.6
20170721031041 73 225 0.0 1.0 0.00 0.00 0.00 54 1008.4
20170721030740 73 225 0.0 1.0 0.00 0.00 0.00 53 1008.4
20170721030438 74 191 1.0 1.0 0.00 0.00 0.00 52 1008.2
20170721030137 75 225 0.0 0.0 0.00 0.00 0.00 52 1008.4
20170721025838 75 225 0.0 1.0 0.00 0.00 0.00 52 1008.5
20170721025534 76 225 0.0 1.0 0.00 0.00 0.00 51 1008.4
20170721025233 76 225 0.0 2.0 0.00 0.00 0.00 50 1008.4
20170721024934 76 180 2.0 2.0 0.00 0.00 0.00 50 1008.3
20170721024630 77 225 1.0 1.0 0.00 0.00 0.00 50 1008.2
20170721024329 77 225 0.0 1.0 0.00 0.00 0.00 50 1008.4
20170721024030 78 254 1.0 3.0 0.00 0.00 0.00 49 1008.5
20170721023727 78 247 1.0 3.0 0.00 0.00 0.00 49 1008.4
20170721023429 78 261 3.0 3.0 0.00 0.00 0.00 49 1008.4
20170721022824 79 243 2.0 4.0 0.00 0.00 0.00 48 1008.2
20170721022524 79 258 3.0 4.0 0.00 0.00 0.00 48 1008.3
20170721022222 79 267 4.0 4.0 0.00 0.00 0.00 47 1008.2
20170721021923 80 243 1.0 4.0 0.00 0.00 0.00 47 1008.5
20170721021619 80 265 3.0 4.0 0.00 0.00 0.00 47 1008.4
20170721021320 80 270 4.0 4.0 0.00 0.00 0.00 46 1008.4
20170721021017 80 227 0.0 3.0 0.00 0.00 0.00 46 1008.4
20170721020718 81 247 1.0 6.0 0.00 0.00 0.00 45 1008.4
20170721015816 82 270 6.0 7.0 0.00 0.00 0.00 44 1008.3
20170721015813 82 270 6.0 7.0 0.00 0.00 0.00 44 1008.3
20170721015512 82 238 1.0 5.0 0.00 0.00 0.00 44 1008.2
20170721015210 82 249 3.0 5.0 0.00 0.00 0.00 43 1008.2
20170721014910 83 267 5.0 5.0 0.00 0.00 0.00 43 1008.1
20170721014612 83 256 4.0 5.0 0.00 0.00 0.00 43 1008.1
20170721014307 83 249 4.0 4.0 0.00 0.00 0.00 42 1008.2
20170721013404 84 240 3.0 4.0 0.00 0.00 0.00 42 1007.9
20170721013103 84 247 2.0 6.0 0.00 0.00 0.00 42 1007.9
20170721012803 84 265 6.0 7.0 0.00 0.00 0.00 42 1007.8
20170721012501 84 265 3.0 7.0 0.00 0.00 0.00 41 1007.8
20170721012201 84 249 1.0 9.0 0.00 0.00 0.00 41 1007.9
20170721011900 84 231 2.0 9.0 0.00 0.00 0.00 40 1008.0
20170721011558 85 256 6.0 8.0 0.00 0.00 0.00 40 1008.0
20170721010956 85 240 3.0 7.0 0.00 0.00 0.00 40 1007.9
20170721010356 86 240 4.0 7.0 0.00 0.00 0.00 40 1007.9
20170721010052 86 256 6.0 8.0 0.00 0.00 0.00 40 1007.9